Location: Melbourne
(37.8170°S, 144.9670°E)
Time: 22:01:44
(UTC+10:00)

deb Explorer IX - All Passes

Search period start: 31 May 2016 00:00
Search period end: 10 June 2016 00:00
Orbit: 550 x 1132 km, 38.8° (Epoch: 29 May)

Date Brightness Start Highest point End Pass type
(mag) Time Alt. Az. Time Alt. Az. Time Alt. Az.
31 May - 01:30:57 10° W 01:38:01 87° N 01:44:01 10° ENE night (unlit)
31 May - 03:19:22 10° W 03:25:19 40° NNW 03:30:24 10° NE night (unlit)
31 May - 19:51:35 10° NNW 19:57:33 27° NE 20:03:32 10° E visible
31 May - 21:37:26 10° WNW 21:44:53 65° NNE 21:51:59 10° ESE visible
31 May - 23:25:22 10° W 23:32:52 84° S 23:39:37 10° E night (unlit)
01 Jun - 01:13:43 10° W 01:20:52 85° NNW 01:27:02 10° ENE night (unlit)
01 Jun - 03:02:10 10° W 03:08:12 38° NNW 03:13:22 10° NE night (unlit)
01 Jun - 19:34:12 10° NNW 19:40:18 28° NE 19:46:28 10° E visible
01 Jun - 21:20:12 10° WNW 21:27:40 68° NNE 21:34:53 10° ESE visible
01 Jun - 23:08:08 10° W 23:15:41 83° S 23:22:34 10° E night (unlit)
02 Jun - 00:56:29 10° W 01:03:44 83° NNW 01:10:02 10° ENE night (unlit)
02 Jun - 02:44:57 10° W 02:51:02 36° NNW 02:56:17 10° NNE night (unlit)
02 Jun - 19:16:51 10° NNW 19:23:02 30° NE 19:29:22 10° E visible
02 Jun - 21:02:58 10° WNW 21:10:26 71° NNE 21:17:46 10° ESE visible
02 Jun - 22:50:55 10° W 22:58:30 83° S 23:05:30 10° E night (unlit)
03 Jun - 00:39:13 10° WSW 00:46:33 81° NNW 00:53:00 10° ENE night (unlit)
03 Jun - 02:27:45 10° W 02:33:50 35° NW 02:39:10 10° NNE night (unlit)
03 Jun - 18:59:31 10° NNW 19:05:45 32° NE 19:12:15 10° E visible
03 Jun - 20:45:45 10° WNW 20:53:11 73° NNE 21:00:36 10° ESE visible
03 Jun - 22:33:42 10° W 22:41:17 83° S 22:48:24 10° E night (unlit)
04 Jun - 00:21:57 10° WSW 00:29:22 78° NNW 00:35:56 10° ENE night (unlit)
04 Jun - 02:10:31 10° W 02:16:39 33° NW 02:22:02 10° NNE night (unlit)
04 Jun - 18:42:12 10° NNW 18:48:28 34° NE 18:55:05 10° E visible
04 Jun - 20:28:32 10° WNW 20:35:56 76° NNE 20:43:25 10° ESE visible
04 Jun - 22:16:28 10° W 22:24:04 83° S 22:31:17 10° E visible
05 Jun - 00:04:41 10° WSW 00:12:09 76° NNW 00:18:50 10° ENE night (unlit)
05 Jun - 01:53:17 10° W 01:59:24 32° NW 02:04:51 10° NNE night (unlit)
05 Jun - 18:24:55 10° NNW 18:31:11 36° NE 18:37:52 10° E visible
05 Jun - 20:11:20 10° WNW 20:18:41 78° NNE 20:26:12 10° ESE visible
05 Jun - 21:59:14 10° W 22:06:50 83° S 22:14:08 10° E visible
05 Jun - 23:47:25 10° WSW 23:54:55 74° NNW 00:01:43 10° ENE night (unlit)
06 Jun - 01:36:02 10° W 01:42:09 30° NW 01:47:38 10° NNE night (unlit)
06 Jun - 18:07:38 10° NNW 18:13:53 38° NNE 18:20:39 10° E visible
06 Jun - 19:54:07 10° WNW 20:01:24 80° NNE 20:08:59 10° ESE visible
06 Jun - 21:42:01 10° W 21:49:34 83° S 21:56:58 10° E visible
06 Jun - 23:30:08 10° WSW 23:37:39 71° NNW 23:44:34 10° ENE night (unlit)
07 Jun - 01:18:48 10° W 01:24:52 29° NW 01:30:22 10° NNE night (unlit)
07 Jun - 16:09:22 10° NE 16:10:07 10° NE 16:10:53 10° NE daylight
07 Jun - 17:50:22 10° NW 17:56:35 39° NNE 18:03:23 10° E visible
07 Jun - 19:36:56 10° WNW 19:44:07 82° NNE 19:51:43 10° E visible
07 Jun - 21:24:47 10° W 21:32:19 83° S 21:39:45 10° E visible
07 Jun - 23:12:51 10° WSW 23:20:22 69° NNW 23:27:22 10° ENE night (unlit)
08 Jun - 01:01:34 10° W 01:07:34 28° NW 01:13:05 10° NNE night (unlit)
08 Jun - 15:51:08 10° NNE 15:52:49 11° NE 15:54:31 10° ENE daylight
08 Jun - 17:33:07 10° NW 17:39:17 41° NNE 17:46:06 10° E visible
08 Jun - 19:19:45 10° WNW 19:26:50 84° NNE 19:34:26 10° E visible
08 Jun - 21:07:33 10° W 21:15:01 84° S 21:22:32 10° E visible
08 Jun - 22:55:34 10° WSW 23:03:04 67° NNW 23:10:09 10° ENE night (unlit)
09 Jun - 00:44:20 10° W 00:50:15 26° NW 00:55:44 10° NNE night (unlit)
09 Jun - 15:33:22 10° NNE 15:35:30 12° NE 15:37:44 10° ENE daylight
09 Jun - 17:15:54 10° NW 17:21:58 43° NNE 17:28:48 10° E daylight
09 Jun - 19:02:33 10° WNW 19:09:33 86° NNE 19:17:08 10° E visible
09 Jun - 20:50:20 10° W 20:57:44 85° S 21:05:17 10° E visible
09 Jun - 22:38:18 10° WSW 22:45:44 64° NNW 22:52:54 10° ENE night (unlit)
